CSS (WENTIAN)

导读

CSS(WENTIAN)是中国天宫空间站的问天实验舱,于2022年7月24日成功发射。作为中国空间站首个科学实验舱,它是国家太空实验室的核心组成部分,具备生命科学、材料科学、微重力物理等多领域研究能力,还为航天员提供更充裕的驻留空间,大幅提升了空间站供电、出舱活动能力,标志着中国载人航天工程取得关键进展,为空间科学研究和长期在轨驻留奠定重要基础。

基本信息
目录编号:
53239
目录名称:
CSS (WENTIAN)
国际标识:
2022-085A
轨道中心:
EARTH
卫星名称:
CSS (WENTIAN)
卫星全名:
--
卫星状态:
在轨 (已飞行1419 天)
发射日期:
2022-07-24 UTC
国别 :
中国 (CN)
星等 :
--
轨道信息
数据来源 国际轨道数据
星历时间: 2026-06-12T07:39:32+0800
20小时前
查看轨道信息
半长轴: 6764.134km
偏心率: 0.0008143
轨道倾角: 41.469°
近地点辐角 34.912°
升交点赤经 353.651°
平近点角 325.226°
近地点: 380.488km
远地点: 391.506km
周期: 92.274分钟
每日圈数: 15.605745
详细信息
使用方式:
暂无
2D轨道图
3D轨道图
轨道高度分析图
轨道倾角分析图
轨道综合分析图
查看轨道综合分析图